This demonstration page uses our WeatherBlox Daily Observations layout. Learn more.

Left ArrowRight Arrow

Hourly Observations for January 14, 2020

Temp ( °F °C ) Dew Point ( °F °C ) Humidity (%) Winds ( mph kmh ) Pressure ( in mb ) Visibility ( mi km ) Precip ( " mm )
12:15 am 00:15 Clear 32 0 32 0 100 100 E 5 7 30.27 1025 10 16.0934 N/A
12:35 am 00:35 Clear 32 0 32 0 100 100 SE 8 13 30.24 1024 10 16.0934 N/A
12:55 am 00:55 Clear 34 1 34 1 100 100 SE 7 11 30.22 1023 10 16.0934 N/A
1:15 am 01:15 Clear 34 1 34 1 100 100 ESE 8 13 30.2 1023 10 16.0934 N/A
1:35 am 01:35 Clear 34 1 34 1 100 100 SE 7 11 30.2 1023 10 16.0934 N/A
1:56 am 01:56 Clear 34 1 34 1 100 100 SE 6 9 30.18 1022 7 11.26538 N/A
2:15 am 02:15 Clear 34 1 34 1 100 100 SE 6 9 30.18 1022 7 11.26538 N/A
2:36 am 02:36 Clear 34 1 34 1 100 100 SSE 6 9 30.17 1022 7 11.26538 N/A
2:55 am 02:55 Clear 34 1 34 1 100 100 SSE 6 9 30.16 1021 7 11.26538 N/A
3:15 am 03:15 Clear 34 1 34 1 100 100 SSE 5 7 30.15 1021 7 11.26538 N/A
3:36 am 03:36 Clear 34 1 34 1 100 100 SSE 6 9 30.14 1021 7 11.26538 N/A
3:55 am 03:55 Clear 34 1 34 1 100 100 SSE 5 7 30.13 1020 7 11.26538 N/A
4:16 am 04:16 Partly Cloudy 34 1 34 1 100 100 SSE 6 9 30.12 1020 7 11.26538 N/A
4:36 am 04:36 Partly Cloudy 32 0 32 0 100 100 S 6 9 30.12 1020 7 11.26538 N/A
4:56 am 04:56 Clear 32 0 32 0 100 100 S 6 9 30.12 1020 7 11.26538 N/A
5:15 am 05:15 Clear 34 1 34 1 100 100 S 5 7 30.11 1020 7 11.26538 N/A
5:36 am 05:36 Partly Cloudy 32 0 32 0 100 100 SSE 5 7 30.12 1020 7 11.26538 N/A
5:55 am 05:55 Partly Cloudy 34 1 34 1 100 100 SSE 8 13 30.11 1020 7 11.26538 N/A
6:16 am 06:16 Mostly Cloudy 34 1 34 1 100 100 SSW 6 9 30.12 1020 7 11.26538 N/A
6:35 am 06:35 Partly Cloudy 34 1 34 1 100 100 S 8 13 30.13 1020 7 11.26538 N/A
6:56 am 06:56 Partly Cloudy 34 1 34 1 100 100 S 5 7 30.13 1020 7 11.26538 N/A
7:15 am 07:15 Cloudy 34 1 34 1 100 100 S 5 7 30.13 1020 7 11.26538 N/A
7:36 am 07:36 Cloudy 36 2 36 2 100 100 S 7 11 30.14 1021 7 11.26538 N/A
7:55 am 07:55 Mostly Cloudy 36 2 36 2 100 100 SSW 8 13 30.14 1021 4 6.43736 N/A
8:15 am 08:15 Cloudy 36 2 36 2 100 100 SW 9 15 30.15 1021 1 1.60934 N/A
8:36 am 08:36 Cloudy 36 2 36 2 100 100 WSW 7 11 30.15 1021 1 1.60934 N/A
8:55 am 08:55 Cloudy 36 2 36 2 100 100 W 9 15 30.16 1021 1.75 2.816345 N/A
9:15 am 09:15 Cloudy 37 3 37 3 100 100 W 8 13 30.16 1021 3 4.82802 N/A
9:36 am 09:36 Cloudy 39 4 39 4 100 100 W 12 19 30.16 1021 7 11.26538 N/A
9:55 am 09:55 Cloudy 39 4 39 4 100 100 W 12 19 30.17 1022 5 8.0467 N/A
10:16 am 10:16 Cloudy 41 5 41 5 100 100 W 13 20 30.18 1022 5 8.0467 N/A
10:35 am 10:35 Cloudy 41 5 41 5 100 100 W 12 19 30.19 1022 5 8.0467 N/A
10:55 am 10:55 Cloudy 41 5 41 5 100 100 W 15 24 30.2 1023 5 8.0467 N/A
11:15 am 11:15 Cloudy 41 5 41 5 100 100 W 10 17 30.21 1023 5 8.0467 N/A
11:35 am 11:35 Cloudy 41 5 41 5 100 100 W 13 20 30.21 1023 5 8.0467 N/A
11:55 am 11:55 Cloudy 41 5 41 5 100 100 W 12 19 30.21 1023 5 8.0467 N/A
12:16 pm 12:16 Cloudy 41 5 41 5 100 100 W 10 17 30.22 1023 5 8.0467 N/A
12:35 pm 12:35 Cloudy 41 5 41 5 100 100 W 12 19 30.21 1023 7 11.26538 N/A
12:55 pm 12:55 Cloudy 41 5 41 5 100 100 W 10 17 30.21 1023 10 16.0934 N/A
1:16 pm 13:16 Cloudy 41 5 41 5 100 100 W 9 15 30.2 1023 7 11.26538 N/A
1:36 pm 13:36 Cloudy 41 5 41 5 100 100 W 8 13 30.19 1022 10 16.0934 N/A
1:56 pm 13:56 Cloudy 41 5 41 5 100 100 WSW 6 9 30.19 1022 10 16.0934 N/A
2:16 pm 14:16 Cloudy 41 5 41 5 100 100 W 9 15 30.19 1022 10 16.0934 N/A
2:36 pm 14:36 Cloudy 43 6 43 6 100 100 WSW 7 11 30.19 1022 10 16.0934 N/A
2:55 pm 14:55 Cloudy 43 6 43 6 100 100 WSW 8 13 30.19 1022 10 16.0934 N/A
3:15 pm 15:15 Cloudy 43 6 43 6 100 100 WSW 7 11 30.18 1022 10 16.0934 N/A
3:35 pm 15:35 Mostly Cloudy 45 7 43 6 93 93 WSW 8 13 30.17 1022 10 16.0934 N/A
3:55 pm 15:55 Partly Cloudy 45 7 45 7 100 100 SW 8 13 30.18 1022 10 16.0934 N/A
4:15 pm 16:15 Partly Cloudy 45 7 45 7 100 100 SSW 10 17 30.18 1022 10 16.0934 N/A
4:35 pm 16:35 Sunny 45 7 45 7 100 100 SSW 8 13 30.18 1022 10 16.0934 N/A
4:55 pm 16:55 Sunny 45 7 43 6 93 93 SSW 8 13 30.18 1022 10 16.0934 N/A
5:16 pm 17:16 Sunny 43 6 43 6 100 100 SSW 6 9 30.19 1022 10 16.0934 N/A
5:35 pm 17:35 Sunny 41 5 41 5 100 100 S 6 9 30.2 1023 10 16.0934 N/A
5:55 pm 17:55 Clear 39 4 39 4 100 100 Calm 30.22 1023 7 11.26538 N/A
6:16 pm 18:16 Clear 37 3 37 3 100 100 Calm 30.23 1024 7 11.26538 N/A
6:36 pm 18:36 Clear 37 3 37 3 100 100 Calm 30.22 1024 7 11.26538 N/A
6:56 pm 18:56 Clear 36 2 36 2 100 100 Calm 30.23 1024 5 8.0467 N/A
7:16 pm 19:16 Clear 34 1 34 1 100 100 Calm 30.23 1024 5 8.0467 N/A
7:35 pm 19:35 Clear 34 1 34 1 100 100 Calm 30.23 1024 3 4.82802 N/A
7:55 pm 19:55 Clear 32 0 32 0 100 100 Calm 30.25 1024 2 3.21868 N/A
8:15 pm 20:15 Mostly Cloudy 30 -1 30 -1 100 100 Calm 30.25 1024 0.75 1.207005 N/A
8:36 pm 20:36 Mostly Cloudy 32 0 32 0 100 100 SSE 3 6 30.24 1024 0.75 1.207005 N/A
8:56 pm 20:56 Mostly Cloudy 32 0 32 0 100 100 S 3 6 30.24 1024 1.25 2.011675 N/A
9:16 pm 21:16 Mostly Cloudy 32 0 32 0 100 100 SSE 6 9 30.24 1024 0.5 0.80467 N/A
9:36 pm 21:36 Mostly Cloudy 32 0 32 0 100 100 SSE 6 9 30.25 1024 1.5 2.41401 N/A
9:56 pm 21:56 Mostly Cloudy 32 0 32 0 100 100 SSE 5 7 30.25 1024 1.25 2.011675 N/A
10:16 pm 22:16 Mostly Cloudy 34 1 34 1 100 100 S 5 7 30.24 1024 1 1.60934 N/A
10:35 pm 22:35 Mostly Cloudy 32 0 32 0 100 100 S 3 6 30.24 1024 0.25 0.402335 N/A
10:56 pm 22:56 Cloudy 30 -1 30 -1 100 100 Calm 30.24 1024 0.25 0.402335 N/A
11:16 pm 23:16 Cloudy 28 -2 28 -2 100 100 S 3 6 30.24 1024 0.25 0.402335 N/A
11:35 pm 23:35 Cloudy 30 -1 30 -1 100 100 SSE 5 7 30.24 1024 0.25 0.402335 N/A
11:56 pm 23:56 Cloudy 30 -1 30 -1 100 100 Calm 30.24 1024 0.25 0.402335 N/A

Powered by AerisWeather